Iliamna, AK

8:45 AM AKDT on April 27, 2017 (GMT -0800)
Iliamna

Weather History for PAIL - June, 2014

Change the Weather History Date:

Sunday, June 8, 2014

  Actual Average Record
Temperature  
Mean Temperature 54 °F -  
Max Temperature 59 °F 56 °F 75 °F (2013)
Min Temperature 48 °F 41 °F 30 °F (1947)
Degree Days  
Heating Degree Days 12    
Growing Degree Days 4 (Base 50)    
Moisture  
Dew Point 47 °F    
Average Humidity 84    
Maximum Humidity 100    
Minimum Humidity 63    
Precipitation  
Precipitation 0.04 in - - ()
Sea Level Pressure  
Sea Level Pressure 29.79 in    
Wind  
Wind Speed 6 mph (SSE)    
Max Wind Speed 16 mph    
Max Gust Speed 26 mph    
Visibility 10 miles    
Events Rain    
Averages and records for this station are not official NWS values.
T = Trace of Precipitation, MM = Missing Value Source: NWS Daily Summary

Daily Weather History Graph

Daily Weather History Graph

Search for Another Location

Airport or City:

Trip Planner

Search our weather history database for the weather conditions in past years. The results will help you decide how hot, cold, wet, or windy it might be!

Date:

Astronomy

Jun. 08, 2014 Rise Set
Actual Time 5:02 AM AKDT 11:35 PM AKDT
Civil Twilight 3:32 AM AKDT 1:06 AM AKDT
Nautical Twilight Sun does not set Sun does not set
Astronomical Twilight Sun does not set Sun does not set
Moon 5:54 PM AKDT (6/8) 3:21 AM AKDT (6/8)
Length of Visible Light 21h 33m
Length of Day
18h 32m
Waxing Gibbous, 78% of the Moon is Illuminated
Jun 8
Waxing Gibbous
Jun 12
Full
Jun 19
Last Quarter
Jun 27
New
Jul 5
First Quarter

Hourly Weather History & Observations

Time (AKDT) Temp. Dew Point Humidity Pressure Visibility Wind Dir Wind Speed Gust Speed Precip Events Conditions
12:53 AM 50.0 °F 48.9 °F 96% 29.70 in 10.0 mi Calm Calm - 0.00 in Rain Light Rain
1:53 AM 50.0 °F 48.9 °F 96% 29.71 in 10.0 mi Calm Calm - 0.00 in   Overcast
2:53 AM 50.0 °F 48.9 °F 96% 29.72 in 10.0 mi Calm Calm - N/A   Overcast
3:53 AM 48.9 °F 48.9 °F 100% 29.73 in 10.0 mi North 5.8 mph - 0.00 in Rain Light Rain
4:29 AM 48.9 °F 48.9 °F 100% 29.74 in 10.0 mi East 4.6 mph - 0.02 in Rain Light Rain
4:50 AM 48.2 °F 48.2 °F 100% 29.74 in 6.0 mi East 5.8 mph - 0.05 in Rain Light Rain
4:53 AM 48.9 °F 48.9 °F 100% 29.75 in 7.0 mi East 5.8 mph - 0.05 in Rain Light Rain
5:29 AM 48.9 °F 46.9 °F 93% 29.75 in 10.0 mi ESE 5.8 mph - 0.00 in Rain Light Rain
5:40 AM 48.0 °F 46.9 °F 96% 29.75 in 10.0 mi East 5.8 mph - 0.00 in Rain Light Rain
5:53 AM 48.0 °F 46.0 °F 93% 29.76 in 10.0 mi ESE 6.9 mph - 0.00 in   Overcast
6:53 AM 48.0 °F 46.0 °F 93% 29.77 in 10.0 mi SSE 4.6 mph - 0.00 in   Overcast
7:35 AM 48.9 °F 46.0 °F 90% 29.77 in 10.0 mi SE 5.8 mph - N/A   Overcast
7:53 AM 48.9 °F 46.0 °F 90% 29.78 in 10.0 mi ESE 5.8 mph - N/A   Mostly Cloudy
8:53 AM 48.9 °F 44.1 °F 83% 29.78 in 10.0 mi SSE 4.6 mph - N/A   Mostly Cloudy
9:53 AM 51.1 °F 44.1 °F 77% 29.80 in 10.0 mi SSE 8.1 mph - N/A   Mostly Cloudy
10:53 AM 52.0 °F 45.0 °F 77% 29.81 in 10.0 mi South 6.9 mph - N/A   Mostly Cloudy
12:53 PM 55.0 °F 45.0 °F 69% 29.81 in 10.0 mi South 9.2 mph - N/A   Scattered Clouds
1:53 PM 55.0 °F 45.0 °F 69% 29.81 in 10.0 mi SSE 8.1 mph - N/A   Mostly Cloudy
2:53 PM 57.9 °F 46.9 °F 67% 29.81 in 10.0 mi South 8.1 mph - N/A   Mostly Cloudy
3:53 PM 55.9 °F 46.9 °F 72% 29.82 in 10.0 mi South 9.2 mph - 0.00 in Rain Light Rain
4:53 PM 57.0 °F 48.0 °F 72% 29.83 in 10.0 mi SSE 15.0 mph - 0.01 in Rain Light Rain
5:53 PM 54.0 °F 50.0 °F 86% 29.83 in 10.0 mi SSW 9.2 mph - 0.00 in Rain Light Rain
6:53 PM 54.0 °F 51.1 °F 90% 29.84 in 10.0 mi SSW 12.7 mph - 0.01 in   Overcast
7:53 PM 54.0 °F 48.0 °F 80% 29.85 in 10.0 mi SW 13.8 mph 23.0 mph N/A   Mostly Cloudy
8:53 PM 52.0 °F 46.9 °F 83% 29.86 in 10.0 mi SW 16.1 mph 23.0 mph N/A   Mostly Cloudy
9:53 PM 51.1 °F 44.1 °F 77% 29.87 in 10.0 mi SW 15.0 mph - N/A   Overcast
10:53 PM 50.0 °F 42.1 °F 74% 29.89 in 10.0 mi WSW 15.0 mph 26.5 mph N/A   Overcast
11:53 PM 48.0 °F 39.9 °F 74% 29.91 in 10.0 mi WSW 15.0 mph 26.5 mph N/A   Overcast